Content
SEND FEEDBACK

Daily
Averages
Monthly
Summary
Czech Republic

CESKE BUDEJOVICE, CZECH REPUBLIC


Home > Europe > Czech Republic
Elevation: 1391 feet     Latitude: 48 56N     Longitude: 014 27E

WEATHER
 
SELECT A DAY
Number of Records: 289,386;   Date Range: 7/1/96 - 4/21/13
 
SHARE

PRINT THIS DATA

[ ← Previous Day ]
WEATHER ALMANAC - FEBRUARY 10, 2013
[ Next Day → ]
[ °C ]   °F
Weather ElementAverageHighLow
Temperature24.2 °F29 °F (4:00 pm)14 °F (10:20 pm)
Dewpoint20.8 °F24.8 °F (12:50 am)12.2 °F (10:20 pm)
Humidity86.9 %100 % (3:20 am)58 % (4:00 pm)
Barometer29.97 in30.09 in (1:00 am)29.86 in (10:20 pm)
Wind Speed5.9 mph9.2 mph (12:50 am)
Weather ElementAverage
Visibility4.5 mi
Wind DirectionSSW (204.8 °)

Weather ElementTotal
Precipitation---
Heating Degree Days43.5 (Base 65)
Averaged from 55 records on February 10, 2013
WEATHER CONDITIONS BREAKOUT
WIND DIRECTION BREAKOUT
WEATHER BY HOUR - FEBRUARY 10, 2013
[ °C ]   °F
Local TimeTemperatureDewpointHumidityBarometerVisibilityWind DirectionWind SpeedGust SpeedPrecipitationEventsConditions
12:50 AM26.6 °F24.8 °F93 %30.01 in1.7 miWSW (250°)9.2 mphSnowSnow
1:00 AM26.0 °F24.0 °F91 %30.09 in2.0 miWSW (250°)8.9 mph
1:20 AM26.6 °F24.8 °F93 %30.01 inWSW (250°)8.1 mphSnowSnow
1:50 AM26.6 °F24.8 °F93 %30.01 in3.7 miWest (260°)8.1 mphSnowLight Snow
2:20 AM26.6 °F23.0 °F86 %30.01 in2.2 miWest (260°)8.1 mphSnowSnow
2:50 AM24.8 °F23.0 °F93 %30.01 inWest (260°)6.9 mphSnowSnow
3:20 AM24.8 °F24.8 °F100 %30.01 in2.5 miWSW (250°)6.9 mphSnowSnow
3:50 AM24.8 °F23.0 °F93 %30.01 inWest (260°)8.1 mphSnowLight Snow
4:00 AM25.0 °F24.0 °F93 %30.08 in2.0 miWest (260°)8.9 mphSnowLight Snow
4:20 AM24.8 °F23.0 °F93 %30.01 inWSW (250°)8.1 mphSnowLight Snow
4:50 AM24.8 °F23.0 °F93 %30.01 inWest (260°)6.9 mphSnowLight Snow
5:20 AM24.8 °F23.0 °F93 %30.01 inWSW (250°)6.9 mphSnowLight Snow
5:50 AM24.8 °F23.0 °F93 %30.01 in3.1 miWSW (250°)8.1 mphSnowLight Snow
6:20 AM24.8 °F23.0 °F93 %30.01 in3.7 miWSW (250°)8.1 mphSnowLight Snow
6:50 AM24.8 °F23.0 °F93 %30.01 in3.7 miWSW (250°)6.9 mphSnowLight Snow
7:00 AM24.0 °F23.0 °F92 %30.08 in4.0 miWSW (250°)6.7 mphSnowLight Snow
7:20 AM24.8 °F23.0 °F93 %30.01 inWest (260°)5.8 mphSnowSnow
7:50 AM24.8 °F23.0 °F93 %30.01 in1.6 miWSW (250°)5.8 mphSnowSnow
8:20 AM24.8 °F23.0 °F93 %30.01 in2.5 miWSW (250°)6.9 mphSnowLight Snow
8:50 AM24.8 °F23.0 °F93 %30.01 in3.7 miWSW (250°)6.9 mphSnowLight Snow
9:20 AM24.8 °F23.0 °F93 %30.01 in3.1 miWest (260°)6.9 mphSnowLight Snow
9:50 AM26.6 °F23.0 °F86 %30.01 in2.8 miWest (260°)8.1 mphSnowLight Snow
10:00 AM26.0 °F23.0 °F84 %30.08 in3.0 miWest (260°)8.9 mphSnowLight Snow
10:20 AM26.6 °F23.0 °F86 %30.01 inWest (260°)8.1 mphSnowLight Snow
10:50 AM26.6 °F23.0 °F86 %30.01 in3.7 miWest (260°)6.9 mphMostly Cloudy
11:20 AM26.6 °F23.0 °F86 %30.01 in5.6 miWSW (250°)6.9 mphMostly Cloudy
11:50 AM28.4 °F23.0 °F80 %30.01 in5.6 miWSW (250°)6.9 mphMostly Cloudy
12:20 PM28.4 °F23.0 °F80 %29.98 in6.2 miSW (230°)6.9 mphMostly Cloudy
12:50 PM28.4 °F23.0 °F80 %29.98 in6.2 miWSW (240°)8.1 mphMostly Cloudy
1:00 PM28.0 °F22.0 °F72 %30.04 in9.0 miWSW (240°)8.9 mphPartly Cloudy
1:20 PM28.4 °F23.0 °F80 %29.98 in6.2 miWSW (240°)8.1 mphScattered Clouds
1:50 PM28.4 °F21.2 °F74 %29.95 in6.2 miWSW (250°)9.2 mphScattered Clouds
2:20 PM28.4 °F21.2 °F74 %29.95 in6.2 miWSW (240°)6.9 mphMostly Cloudy
2:50 PM28.4 °F21.2 °F74 %29.95 in6.2 miWSW (240°)6.9 mphMostly Cloudy
3:20 PM28.4 °F21.2 °F74 %29.95 in6.2 miWSW (250°)6.9 mphMostly Cloudy
3:50 PM28.4 °F19.4 °F69 %29.95 in6.2 miWest (260°)8.1 mphSnowLight Snow Showers
4:00 PM29.0 °F20.0 °F58 %30.01 in18.0 miWest (260°)8.9 mphSnowLight Snow Showers
4:20 PM28.4 °F21.2 °F74 %29.92 in6.2 miWest (280°)5.8 mphSnowLight Snow Showers
4:50 PM28.4 °F19.4 °F69 %29.92 in6.2 miWest (260°)3.5 mphMostly Cloudy
5:20 PM26.6 °F21.2 °F80 %29.92 in6.2 miNW (310°)4.6 mphScattered Clouds
5:50 PM24.8 °F21.2 °F86 %29.92 in6.2 miWNW (290°)2.3 mphScattered Clouds
6:20 PM24.8 °F19.4 °F80 %29.92 in6.2 miVariable1.2 mphScattered Clouds
6:50 PM21.2 °F19.4 °F93 %29.92 inVariable1.2 mphClear
7:00 PM21.0 °F18.0 °F86 %29.99 in6.0 mi°2.2 mphPartly Cloudy
7:20 PM21.2 °F17.6 °F86 %29.89 in5.6 miVariable1.2 mphPartly Cloudy
7:50 PM19.4 °F17.6 °F93 %29.89 in5.0 miCalmPartly Cloudy
8:20 PM17.6 °F15.8 °F93 %29.89 in5.0 miVariable1.2 mphPartly Cloudy
8:50 PM15.8 °F14.0 °F93 %29.89 in3.1 miVariable1.2 mphPartly Cloudy
9:20 PM15.8 °F15.8 °F100 %29.89 in2.8 miEast (80°)3.5 mphPartly Cloudy
9:50 PM15.8 °F14.0 °F93 %29.89 in2.8 miESE (120°)2.3 mphPartly Cloudy
10:00 PM16.0 °F14.0 °F90 %29.98 in3.0 miESE (120°)2.2 mphMist
10:20 PM14.0 °F12.2 °F93 %29.86 in2.2 miENE (60°)2.3 mphClear
10:50 PM15.8 °F14.0 °F93 %29.86 in1.4 miVariable1.2 mphClear
11:20 PM15.8 °F14.0 °F93 %29.86 in0.2 miESE (110°)2.3 mphPartly Cloudy
11:50 PM14.0 °F12.2 °F93 %29.86 in1.1 miESE (110°)2.3 mphFogLight Freezing Fog
Hourly data recorded from LOLF, located miles away from Ceske Budejovice, Czech Republic







STORIES FROM OUR PARTNERS